| time (UTC) | temp F | wind direction | speed MPH | gust MPH | rain 1hr in | rain 24hr in | rain mn in | humidity % | barometer mb |
| 20260505014243 | 74 | 114 | 2.0 | 2.0 | 0.00 | 0.06 | 0.06 | 89 | 1014.9 |
| 20260505013739 | 74 | 103 | 3.0 | 3.0 | 0.00 | 0.06 | 0.06 | 89 | 1014.9 |
| 20260505013237 | 74 | 77 | 3.0 | 5.0 | 0.00 | 0.06 | 0.06 | 89 | 1015.1 |
| 20260505012735 | 74 | 110 | 1.0 | 1.0 | 0.00 | 0.06 | 0.06 | 89 | 1014.7 |
| 20260505012232 | 74 | 46 | 2.0 | 3.0 | 0.00 | 0.06 | 0.06 | 89 | 1014.6 |
| 20260505011728 | 74 | 128 | 4.0 | 6.0 | 0.00 | 0.06 | 0.06 | 89 | 1014.9 |
| 20260505011225 | 74 | 103 | 2.0 | 2.0 | 0.00 | 0.06 | 0.06 | 89 | 1015.0 |
| 20260505010720 | 74 | 161 | 3.0 | 6.0 | 0.00 | 0.06 | 0.06 | 89 | 1014.6 |
| 20260505010217 | 74 | 102 | 5.0 | 9.0 | 0.00 | 0.06 | 0.06 | 89 | 1014.6 |
| 20260505005714 | 74 | 101 | 3.0 | 5.0 | 0.00 | 0.06 | 0.06 | 89 | 1014.6 |
| 20260505005211 | 74 | 138 | 2.0 | 3.0 | 0.00 | 0.06 | 0.06 | 89 | 1014.7 |
| 20260505004708 | 74 | 168 | 1.0 | 2.0 | 0.00 | 0.06 | 0.06 | 89 | 1014.6 |
| 20260505004204 | 74 | 140 | 1.0 | 1.0 | 0.00 | 0.06 | 0.06 | 89 | 1014.4 |
| 20260505003702 | 74 | 99 | 1.0 | 2.0 | 0.00 | 0.06 | 0.06 | 89 | 1014.5 |
| 20260505003159 | 74 | 109 | 1.0 | 1.0 | 0.00 | 0.06 | 0.06 | 90 | 1014.3 |
| 20260505002655 | 74 | 103 | 0.0 | 2.0 | 0.00 | 0.06 | 0.06 | 90 | 1014.5 |
| 20260505002153 | 74 | 105 | 3.0 | 3.0 | 0.00 | 0.06 | 0.06 | 90 | 1014.6 |
| 20260505001650 | 75 | 107 | 0.0 | 1.0 | 0.00 | 0.06 | 0.06 | 90 | 1014.9 |
| 20260505001148 | 75 | 107 | 0.0 | 1.0 | 0.00 | 0.06 | 0.06 | 90 | 1014.6 |
| 20260505000644 | 77 | 137 | 4.0 | 6.0 | 0.00 | 0.06 | 0.06 | 84 | 1014.3 |
| 20260505000142 | 77 | 137 | 4.0 | 6.0 | 0.00 | 0.06 | 0.06 | 84 | 1014.3 |
| 20260504235638 | 77 | 137 | 4.0 | 6.0 | 0.00 | 0.06 | 0.06 | 84 | 1014.3 |
| 20260504235135 | 77 | 137 | 4.0 | 6.0 | 0.00 | 0.06 | 0.06 | 84 | 1014.3 |
| 20260504234632 | 77 | 137 | 4.0 | 6.0 | 0.00 | 0.06 | 0.06 | 84 | 1014.3 |
| 20260504234130 | 77 | 53 | 3.0 | 5.0 | 0.00 | 0.06 | 0.06 | 84 | 1014.3 |
| 20260504233625 | 77 | 64 | 3.0 | 6.0 | 0.00 | 0.06 | 0.06 | 84 | 1014.2 |
| 20260504233121 | 77 | 81 | 2.0 | 3.0 | 0.00 | 0.06 | 0.06 | 84 | 1014.3 |
| 20260504232619 | 77 | 76 | 2.0 | 3.0 | 0.00 | 0.06 | 0.06 | 84 | 1014.3 |
| 20260504232116 | 77 | 43 | 3.0 | 5.0 | 0.00 | 0.06 | 0.06 | 84 | 1014.0 |
| 20260504231613 | 77 | 80 | 3.0 | 5.0 | 0.00 | 0.06 | 0.06 | 83 | 1014.1 |
| 20260504231109 | 77 | 80 | 3.0 | 5.0 | 0.00 | 0.06 | 0.06 | 83 | 1014.1 |
| 20260504230605 | 77 | 80 | 3.0 | 5.0 | 0.00 | 0.06 | 0.06 | 83 | 1014.0 |
| 20260504230104 | 77 | 80 | 3.0 | 5.0 | 0.00 | 0.06 | 0.06 | 83 | 1013.8 |
| 20260504225601 | 77 | 80 | 3.0 | 5.0 | 0.00 | 0.06 | 0.06 | 83 | 1013.9 |
| 20260504225058 | 77 | 80 | 4.0 | 8.0 | 0.00 | 0.06 | 0.06 | 83 | 1013.9 |
| 20260504224554 | 78 | 62 | 4.0 | 5.0 | 0.00 | 0.06 | 0.06 | 83 | 1013.9 |
| 20260504224052 | 78 | 62 | 4.0 | 5.0 | 0.00 | 0.06 | 0.06 | 83 | 1014.0 |
| 20260504223549 | 78 | 62 | 4.0 | 5.0 | 0.00 | 0.06 | 0.06 | 83 | 1013.9 |
| 20260504223044 | 78 | 62 | 4.0 | 5.0 | 0.00 | 0.06 | 0.06 | 83 | 1013.8 |
| 20260504222541 | 78 | 62 | 4.0 | 5.0 | 0.00 | 0.06 | 0.06 | 83 | 1013.8 |
| 20260504222039 | 78 | 84 | 3.0 | 5.0 | 0.00 | 0.06 | 0.06 | 83 | 1013.7 |
| 20260504221536 | 78 | 62 | 4.0 | 7.0 | 0.00 | 0.06 | 0.06 | 83 | 1013.9 |
| 20260504221032 | 78 | 62 | 4.0 | 7.0 | 0.00 | 0.06 | 0.06 | 83 | 1014.0 |
| 20260504220529 | 78 | 88 | 4.0 | 5.0 | 0.00 | 0.06 | 0.06 | 84 | 1013.9 |
| 20260504220026 | 78 | 88 | 4.0 | 5.0 | 0.00 | 0.06 | 0.06 | 84 | 1013.8 |
| 20260504215522 | 77 | 50 | 4.0 | 5.0 | 0.00 | 0.06 | 0.06 | 84 | 1013.7 |
| 20260504215020 | 77 | 50 | 4.0 | 5.0 | 0.00 | 0.06 | 0.06 | 84 | 1013.5 |
| 20260504214516 | 78 | 59 | 5.0 | 9.0 | 0.00 | 0.06 | 0.06 | 84 | 1013.6 |
| 20260504214012 | 78 | 59 | 5.0 | 9.0 | 0.00 | 0.06 | 0.06 | 84 | 1013.8 |
| 20260504213509 | 78 | 43 | 2.0 | 6.0 | 0.00 | 0.06 | 0.06 | 85 | 1013.7 |
| 20260504213007 | 78 | 43 | 2.0 | 6.0 | 0.00 | 0.06 | 0.06 | 85 | 1013.7 |
| 20260504212502 | 78 | 66 | 2.0 | 3.0 | 0.00 | 0.06 | 0.06 | 84 | 1013.8 |
| 20260504212000 | 78 | 66 | 2.0 | 3.0 | 0.00 | 0.06 | 0.06 | 84 | 1013.8 |
| 20260504211456 | 77 | 359 | 4.0 | 10.0 | 0.00 | 0.06 | 0.06 | 85 | 1014.0 |
| 20260504210954 | 78 | 83 | 4.0 | 6.0 | 0.00 | 0.06 | 0.06 | 84 | 1014.2 |
| 20260504210450 | 77 | 84 | 3.0 | 5.0 | 0.00 | 0.06 | 0.06 | 84 | 1014.1 |
| 20260504205947 | 77 | 84 | 3.0 | 5.0 | 0.00 | 0.06 | 0.06 | 84 | 1014.1 |
| 20260504205444 | 77 | 103 | 4.0 | 5.0 | 0.00 | 0.06 | 0.06 | 87 | 1014.0 |
| 20260504204943 | 77 | 103 | 4.0 | 5.0 | 0.00 | 0.06 | 0.06 | 87 | 1014.2 |
| 20260504204441 | 77 | 93 | 3.0 | 6.0 | 0.00 | 0.06 | 0.06 | 87 | 1014.3 |
| 20260504203940 | 77 | 105 | 4.0 | 7.0 | 0.00 | 0.06 | 0.06 | 86 | 1014.1 |
| 20260504203437 | 77 | 105 | 4.0 | 7.0 | 0.00 | 0.06 | 0.06 | 86 | 1014.1 |
| 20260504202933 | 79 | 53 | 3.0 | 7.0 | 0.00 | 0.06 | 0.06 | 86 | 1014.2 |
| 20260504202429 | 79 | 53 | 3.0 | 7.0 | 0.00 | 0.06 | 0.06 | 86 | 1014.3 |
| 20260504201926 | 79 | 95 | 5.0 | 7.0 | 0.00 | 0.06 | 0.06 | 80 | 1014.4 |
| 20260504201424 | 79 | 95 | 5.0 | 7.0 | 0.00 | 0.06 | 0.06 | 80 | 1014.1 |
| 20260504200921 | 79 | 122 | 4.0 | 6.0 | 0.00 | 0.06 | 0.06 | 80 | 1014.3 |
| 20260504200418 | 79 | 122 | 4.0 | 6.0 | 0.00 | 0.06 | 0.06 | 80 | 1014.3 |
| 20260504195915 | 80 | 104 | 2.0 | 3.0 | 0.00 | 0.06 | 0.06 | 80 | 1014.1 |
| 20260504195410 | 81 | 56 | 5.0 | 7.0 | 0.00 | 0.06 | 0.06 | 78 | 1014.1 |
| 20260504194907 | 80 | 84 | 4.0 | 5.0 | 0.00 | 0.06 | 0.06 | 80 | 1014.4 |
| 20260504194403 | 80 | 84 | 4.0 | 5.0 | 0.00 | 0.06 | 0.06 | 80 | 1014.6 |
| 20260504193859 | 80 | 74 | 5.0 | 9.0 | 0.00 | 0.06 | 0.06 | 80 | 1014.2 |
| 20260504193356 | 80 | 79 | 5.0 | 10.0 | 0.00 | 0.06 | 0.06 | 80 | 1014.4 |
| 20260504192855 | 80 | 64 | 5.0 | 8.0 | 0.00 | 0.06 | 0.06 | 78 | 1014.7 |
| 20260504192352 | 80 | 64 | 5.0 | 8.0 | 0.00 | 0.06 | 0.06 | 78 | 1014.8 |
| 20260504191850 | 80 | 64 | 5.0 | 8.0 | 0.00 | 0.06 | 0.06 | 78 | 1014.7 |
| 20260504191348 | 80 | 64 | 5.0 | 8.0 | 0.00 | 0.06 | 0.06 | 78 | 1014.6 |
| 20260504190843 | 80 | 78 | 4.0 | 7.0 | 0.00 | 0.06 | 0.06 | 79 | 1014.7 |
| 20260504190339 | 80 | 78 | 4.0 | 7.0 | 0.00 | 0.06 | 0.06 | 79 | 1014.7 |
| 20260504185836 | 79 | 150 | 6.0 | 10.0 | 0.00 | 0.06 | 0.06 | 80 | 1014.8 |
| 20260504185333 | 80 | 87 | 4.0 | 8.0 | 0.00 | 0.06 | 0.06 | 81 | 1015.0 |
| 20260504184829 | 79 | 59 | 3.0 | 6.0 | 0.00 | 0.06 | 0.06 | 82 | 1015.3 |
| 20260504184325 | 79 | 59 | 3.0 | 6.0 | 0.00 | 0.06 | 0.06 | 82 | 1015.2 |
| 20260504183821 | 79 | 59 | 3.0 | 6.0 | 0.00 | 0.06 | 0.06 | 82 | 1015.1 |
| 20260504183319 | 79 | 59 | 3.0 | 6.0 | 0.00 | 0.06 | 0.06 | 82 | 1015.2 |
| 20260504182816 | 79 | 59 | 3.0 | 6.0 | 0.00 | 0.06 | 0.06 | 82 | 1015.3 |
| 20260504182314 | 79 | 67 | 6.0 | 8.0 | 0.00 | 0.06 | 0.06 | 81 | 1015.3 |
| 20260504181811 | 79 | 67 | 6.0 | 8.0 | 0.00 | 0.06 | 0.06 | 81 | 1015.4 |
| 20260504181308 | 79 | 67 | 6.0 | 8.0 | 0.00 | 0.06 | 0.06 | 81 | 1015.4 |
| 20260504180807 | 79 | 67 | 6.0 | 8.0 | 0.00 | 0.06 | 0.06 | 81 | 1015.8 |
| 20260504180305 | 78 | 355 | 5.0 | 7.0 | 0.00 | 0.06 | 0.06 | 83 | 1015.6 |
| 20260504175803 | 78 | 36 | 2.0 | 5.0 | 0.00 | 0.06 | 0.06 | 84 | 1015.4 |
| 20260504175259 | 77 | 111 | 0.0 | 1.0 | 0.00 | 0.06 | 0.06 | 87 | 1015.6 |
| 20260504174757 | 77 | 111 | 0.0 | 1.0 | 0.00 | 0.06 | 0.06 | 87 | 1015.7 |
| 20260504174255 | 77 | 111 | 0.0 | 1.0 | 0.00 | 0.06 | 0.06 | 87 | 1015.7 |
| 20260504173751 | 77 | 111 | 0.0 | 1.0 | 0.00 | 0.06 | 0.06 | 87 | 1015.8 |
| 20260504173248 | 77 | 62 | 4.0 | 5.0 | 0.00 | 0.06 | 0.06 | 87 | 1015.6 |
| 20260504172745 | 76 | 127 | 3.0 | 5.0 | 0.00 | 0.06 | 0.06 | 86 | 1015.9 |
| 20260504172241 | 76 | 153 | 3.0 | 3.0 | 0.00 | 0.06 | 0.06 | 86 | 1015.9 |
| 20260504171737 | 75 | 116 | 2.0 | 3.0 | 0.00 | 0.06 | 0.06 | 88 | 1015.9 |
| 20260504171235 | 75 | 116 | 2.0 | 3.0 | 0.07 | 0.06 | 0.06 | 88 | 1016.1 |
| 20260504170732 | 75 | 116 | 2.0 | 3.0 | 0.07 | 0.06 | 0.06 | 88 | 1015.7 |
| 20260504170229 | 79 | 105 | 2.0 | 2.0 | 0.00 | 0.05 | 0.05 | 82 | 1015.8 |
| 20260504160147 | 78 | 30 | 3.0 | 6.0 | 0.00 | 0.05 | 0.05 | 84 | 1015.9 |
| 20260504151115 | 80 | 138 | 1.0 | 2.0 | 0.00 | 0.05 | 0.05 | 82 | 1015.8 |
| 20260504150612 | 81 | 113 | 2.0 | 3.0 | 0.00 | 0.05 | 0.05 | 81 | 1015.9 |
| 20260504150109 | 80 | 67 | 1.0 | 2.0 | 0.00 | 0.05 | 0.05 | 82 | 1015.9 |
| 20260504141038 | 78 | 78 | 2.0 | 2.0 | 0.00 | 0.05 | 0.05 | 84 | 1015.7 |
| 20260504140534 | 78 | 78 | 2.0 | 2.0 | 0.00 | 0.05 | 0.05 | 84 | 1015.5 |
| 20260504130459 | 75 | 100 | 0.0 | 1.0 | 0.00 | 0.05 | 0.05 | 95 | 1015.3 |
| 20260504110346 | 71 | 116 | 0.0 | 0.0 | 0.31 | 0.05 | 0.05 | 98 | 1014.3 |
| 20260504100303 | 0 | 0.0 | 0.0 | 0.00 | 0.00 | 0.00 | 1014.5 | ||
| 20260504081657 | 0 | 0.0 | 0.0 | 0.00 | 0.00 | 0.00 | 1013.4 | ||
| 20260504081153 | 0 | 0.0 | 0.0 | 0.00 | 0.00 | 0.00 | 1013.5 | ||
| 20260504080649 | 0 | 0.0 | 0.0 | 0.00 | 0.00 | 0.00 | 1013.4 | ||
| 20260504080146 | 0 | 0.0 | 0.0 | 0.00 | 0.00 | 0.00 | 1013.6 | ||
| 20260504070114 | 0 | 0.0 | 0.0 | 0.00 | 0.00 | 0.00 | 1014.0 | ||
| 20260504050502 | 0 | 0.0 | 0.0 | 0.00 | 0.00 | 0.00 | 1015.9 | ||
| 20260504045959 | 0 | 0.0 | 0.0 | 0.00 | 0.00 | 0.00 | 1015.8 | ||
| 20260504045455 | 0 | 0.0 | 0.0 | 0.00 | 0.00 | 0.00 | 1015.5 | ||
| 20260504044951 | 0 | 0.0 | 0.0 | 0.00 | 0.00 | 0.00 | 1015.5 | ||
| 20260504044449 | 0 | 0.0 | 0.0 | 0.00 | 0.00 | 0.00 | 1015.3 | ||
| 20260504043946 | 0 | 0.0 | 0.0 | 0.00 | 0.00 | 0.00 | 1015.1 | ||
| 20260504043443 | 0 | 0.0 | 0.0 | 0.00 | 0.00 | 0.00 | 1015.2 | ||
| 20260504042941 | 0 | 0.0 | 0.0 | 0.00 | 0.00 | 0.00 | 1015.5 | ||
| 20260504042437 | 0 | 0.0 | 0.0 | 0.00 | 0.00 | 0.00 | 1015.3 | ||
| 20260504041934 | 0 | 0.0 | 0.0 | 0.00 | 0.00 | 0.00 | 1015.1 | ||
| 20260504041430 | 0 | 0.0 | 0.0 | 0.00 | 0.00 | 0.00 | 1015.3 | ||
| 20260504040926 | 0 | 0.0 | 0.0 | 0.00 | 0.00 | 0.00 | 1015.3 | ||
| 20260504040424 | 0 | 0.0 | 0.0 | 0.00 | 0.00 | 0.00 | 1015.4 | ||
| 20260504035920 | 0 | 0.0 | 0.0 | 0.00 | 0.52 | 0.52 | 1015.5 | ||
| 20260504035417 | 0 | 0.0 | 0.0 | 0.00 | 0.52 | 0.52 | 1015.8 | ||
| 20260504034914 | 0 | 0.0 | 0.0 | 0.00 | 0.52 | 0.52 | 1015.7 | ||
| 20260504034412 | 0 | 0.0 | 0.0 | 0.00 | 0.52 | 0.52 | 1015.5 | ||
| 20260504033908 | 0 | 0.0 | 0.0 | 0.00 | 0.52 | 0.52 | 1015.9 | ||
| 20260504033406 | 0 | 0.0 | 0.0 | 0.00 | 0.52 | 0.52 | 1015.8 | ||
| 20260504032903 | 0 | 0.0 | 0.0 | 0.00 | 0.52 | 0.52 | 1015.4 | ||
| 20260504032400 | 0 | 0.0 | 0.0 | 0.00 | 0.52 | 0.52 | 1015.7 | ||
| 20260504031856 | 0 | 0.0 | 0.0 | 0.00 | 0.52 | 0.52 | 1015.6 | ||
| 20260504031353 | 0 | 0.0 | 0.0 | 0.00 | 0.52 | 0.52 | 1015.8 | ||
| 20260504030850 | 0 | 0.0 | 0.0 | 0.00 | 0.52 | 0.52 | 1015.8 | ||
| 20260504030347 | 0 | 0.0 | 0.0 | 0.00 | 0.52 | 0.52 | 1015.9 | ||
| 20260504025843 | 0 | 0.0 | 0.0 | 0.00 | 0.52 | 0.52 | 1015.7 | ||
| 20260504025340 | 0 | 0.0 | 0.0 | 0.00 | 0.52 | 0.52 | 1015.8 | ||
| 20260504024837 | 0 | 0.0 | 0.0 | 0.00 | 0.52 | 0.52 | 1015.8 | ||
| 20260504024333 | 0 | 0.0 | 0.0 | 0.00 | 0.52 | 0.52 | 1016.0 | ||
| 20260504023830 | 0 | 0.0 | 0.0 | 0.00 | 0.52 | 0.52 | 1015.7 | ||
| 20260504023327 | 0 | 0.0 | 0.0 | 0.00 | 0.52 | 0.52 | 1015.7 | ||
| 20260504022822 | 0 | 0.0 | 0.0 | 0.00 | 0.52 | 0.52 | 1015.7 | ||
| 20260504022320 | 0 | 0.0 | 0.0 | 0.00 | 0.52 | 0.52 | 1015.8 | ||
| 20260504021816 | 0 | 0.0 | 0.0 | 0.00 | 0.52 | 0.52 | 1015.6 | ||
| 20260504021314 | 0 | 0.0 | 0.0 | 0.00 | 0.52 | 0.52 | 1015.5 | ||
| 20260504020811 | 0 | 0.0 | 0.0 | 0.00 | 0.52 | 0.52 | 1015.7 | ||
| 20260504020308 | 0 | 0.0 | 0.0 | 0.00 | 0.52 | 0.52 | 1015.6 | ||
| 20260504015803 | 0 | 0.0 | 0.0 | 0.00 | 0.52 | 0.52 | 1015.7 | ||
| 20260504015300 | 0 | 0.0 | 0.0 | 0.00 | 0.52 | 0.52 | 1015.5 | ||
| 20260504014755 | 0 | 0.0 | 0.0 | 0.00 | 0.52 | 0.52 | 1015.6 |